Location: Fontevrault
(47.1823°N, 0.0493°E)
Time: 14:17:10
(UTC+00:00)

Terra - Pass Details

Date: 16 June 2021
Orbit: 701 x 703 km, 98.2° (Epoch: 05 August)

Event Time Altitude Azimuth Distance (km) Brightness Sun altitude
Exits shadow 22:44:44 15° 215° (SW) 1,824 3.6 -17.4°
Maximum altitude 22:47:44 28° 265° (W) 1,308 3.3 -17.5°
Drops below altitude 10° 22:51:51 10° 325° (NW) 2,181 5.5 -17.7°
Sets 22:54:24 0° 337° (NNW) 3,105 6.8 -17.9°
